Photometre #851[NE_1.6_Dp] Glasgow_MO AOT

File : 20220926_851.hum

26/09/2022,07:14:42,TEMP=9.8,BA=5.64,STAT.A,ExtBa=12.20
26/09/2022,07:18:23,TEMP=10.1,BA=5.64,STAT.D,ExtBa=12.10
26/09/2022,07:20:23,TEMP=10.4,BA=5.64,STAT.A,ExtBa=12.10
26/09/2022,07:24:54,TEMP=10.2,BA=5.64,STAT.A,ExtBa=12.10
26/09/2022,07:31:28,TEMP=10.0,BA=5.64,STAT.A,ExtBa=12.10
26/09/2022,07:36:23,TEMP=10.1,BA=5.64,STAT.D,ExtBa=12.10
26/09/2022,07:39:23,TEMP=10.4,BA=5.64,STAT.D,ExtBa=12.10
26/09/2022,07:41:23,TEMP=10.7,BA=5.64,STAT.A,ExtBa=12.00
26/09/2022,07:49:22,TEMP=10.1,BA=5.64,STAT.A,ExtBa=12.10
26/09/2022,08:00:23,TEMP=9.7,BA=5.64,STAT.D,ExtBa=12.10
26/09/2022,08:02:24,TEMP=10.1,BA=5.64,STAT.B,ExtBa=12.10
26/09/2022,08:11:25,TEMP=10.4,BA=5.64,STAT.A,ExtBa=12.00
26/09/2022,08:15:06,TEMP=10.4,BA=5.64,STAT.A,ExtBa=12.00
26/09/2022,08:23:00,TEMP=10.2,BA=5.64,STAT.A,ExtBa=12.10
26/09/2022,08:32:06,TEMP=10.1,BA=5.64,STAT.A,ExtBa=12.10
26/09/2022,08:36:24,TEMP=10.5,BA=5.64,STAT.D,ExtBa=12.00
26/09/2022,08:39:24,TEMP=10.7,BA=5.64,STAT.D,ExtBa=12.00
26/09/2022,08:42:23,TEMP=10.8,BA=5.64,STAT.D,ExtBa=12.00
26/09/2022,08:44:24,TEMP=11.3,BA=5.64,STAT.C,ExtBa=12.00
26/09/2022,09:08:25,TEMP=13.3,BA=5.64,STAT.A,ExtBa=12.00
26/09/2022,09:11:44,TEMP=13.1,BA=5.64,STAT.F,ExtBa=12.00
26/09/2022,09:36:18,TEMP=14.2,BA=5.64,STAT.D,ExtBa=11.90
26/09/2022,09:40:10,TEMP=13.9,BA=5.64,STAT.D,ExtBa=12.00
26/09/2022,09:42:24,TEMP=14.1,BA=5.64,STAT.D,ExtBa=12.00
26/09/2022,09:45:24,TEMP=14.1,BA=5.64,STAT.D,ExtBa=12.00
26/09/2022,09:48:24,TEMP=14.1,BA=5.64,STAT.D,ExtBa=12.00
26/09/2022,09:51:24,TEMP=14.2,BA=5.64,STAT.D,ExtBa=12.00
26/09/2022,09:54:24,TEMP=14.2,BA=5.64,STAT.D,ExtBa=12.00
26/09/2022,09:56:23,TEMP=14.5,BA=5.64,STAT.D,ExtBa=12.00
26/09/2022,10:00:24,TEMP=14.2,BA=5.64,STAT.D,ExtBa=12.00
26/09/2022,10:03:24,TEMP=14.4,BA=5.64,STAT.D,ExtBa=12.00
26/09/2022,10:06:24,TEMP=14.3,BA=5.64,STAT.D,ExtBa=12.00
26/09/2022,10:09:24,TEMP=14.3,BA=5.64,STAT.D,ExtBa=12.00
26/09/2022,10:11:23,TEMP=14.5,BA=5.60,STAT.F,ExtBa=12.00
26/09/2022,10:37:33,TEMP=14.8,BA=5.60,STAT.D,ExtBa=12.00
26/09/2022,10:40:10,TEMP=14.7,BA=5.60,STAT.D,ExtBa=12.00
26/09/2022,10:42:24,TEMP=14.7,BA=5.60,STAT.D,ExtBa=11.90
26/09/2022,10:45:24,TEMP=14.6,BA=5.60,STAT.D,ExtBa=12.00
26/09/2022,10:48:24,TEMP=14.6,BA=5.60,STAT.D,ExtBa=12.00
26/09/2022,10:51:24,TEMP=14.6,BA=5.60,STAT.D,ExtBa=12.00
26/09/2022,10:54:24,TEMP=14.6,BA=5.60,STAT.D,ExtBa=12.00
26/09/2022,10:56:21,TEMP=14.8,BA=5.60,STAT.D,ExtBa=11.90
26/09/2022,11:00:24,TEMP=14.3,BA=5.64,STAT.D,ExtBa=12.00
26/09/2022,11:03:24,TEMP=14.4,BA=5.64,STAT.D,ExtBa=12.00
26/09/2022,11:06:24,TEMP=14.4,BA=5.64,STAT.D,ExtBa=12.00
26/09/2022,11:09:24,TEMP=14.5,BA=5.64,STAT.D,ExtBa=12.00
26/09/2022,11:11:26,TEMP=14.8,BA=5.60,STAT.F,ExtBa=11.90
26/09/2022,11:35:12,TEMP=15.4,BA=5.60,STAT.D,ExtBa=11.90
26/09/2022,11:39:24,TEMP=15.1,BA=5.60,STAT.D,ExtBa=12.00
26/09/2022,11:41:45,TEMP=15.4,BA=5.60,STAT.D,ExtBa=11.90
26/09/2022,11:45:24,TEMP=15.2,BA=5.60,STAT.D,ExtBa=12.00
26/09/2022,11:48:24,TEMP=15.4,BA=5.60,STAT.D,ExtBa=11.90
26/09/2022,11:51:24,TEMP=15.3,BA=5.60,STAT.D,ExtBa=11.90
26/09/2022,11:54:24,TEMP=15.4,BA=5.60,STAT.D,ExtBa=12.00
26/09/2022,11:56:21,TEMP=15.7,BA=5.60,STAT.D,ExtBa=11.90
26/09/2022,12:09:24,TEMP=13.9,BA=5.64,STAT.D,ExtBa=12.00
26/09/2022,12:11:22,TEMP=14.2,BA=5.64,STAT.F,ExtBa=12.00
26/09/2022,12:24:24,TEMP=13.3,BA=5.64,STAT.D,ExtBa=12.00
26/09/2022,12:26:21,TEMP=13.7,BA=5.64,STAT.D,ExtBa=12.00
26/09/2022,12:30:24,TEMP=13.7,BA=5.64,STAT.D,ExtBa=12.00
26/09/2022,12:33:24,TEMP=14.2,BA=5.64,STAT.D,ExtBa=12.00
26/09/2022,12:36:24,TEMP=14.6,BA=5.64,STAT.D,ExtBa=12.00
26/09/2022,12:39:24,TEMP=14.8,BA=5.64,STAT.D,ExtBa=12.00
26/09/2022,12:41:21,TEMP=15.2,BA=5.64,STAT.D,ExtBa=11.90
26/09/2022,12:45:24,TEMP=15.2,BA=5.64,STAT.D,ExtBa=12.00
26/09/2022,12:48:24,TEMP=15.3,BA=5.64,STAT.D,ExtBa=12.00
26/09/2022,12:51:24,TEMP=15.4,BA=5.64,STAT.D,ExtBa=12.00
26/09/2022,12:54:24,TEMP=15.4,BA=5.64,STAT.D,ExtBa=12.00
26/09/2022,12:56:21,TEMP=15.7,BA=5.64,STAT.D,ExtBa=11.90
26/09/2022,13:00:24,TEMP=15.5,BA=5.64,STAT.D,ExtBa=12.00
26/09/2022,13:03:24,TEMP=15.7,BA=5.64,STAT.D,ExtBa=12.00
26/09/2022,13:06:24,TEMP=15.6,BA=5.64,STAT.D,ExtBa=12.00
26/09/2022,13:09:24,TEMP=15.4,BA=5.64,STAT.D,ExtBa=12.00
26/09/2022,13:11:24,TEMP=15.7,BA=5.64,STAT.F,ExtBa=11.90
26/09/2022,13:36:18,TEMP=16.0,BA=5.60,STAT.D,ExtBa=11.90
26/09/2022,13:40:10,TEMP=15.4,BA=5.60,STAT.D,ExtBa=12.00
26/09/2022,13:42:24,TEMP=15.7,BA=5.60,STAT.D,ExtBa=11.90
26/09/2022,13:45:24,TEMP=15.5,BA=5.60,STAT.D,ExtBa=11.90
26/09/2022,13:48:24,TEMP=15.7,BA=5.60,STAT.D,ExtBa=11.90
26/09/2022,13:51:24,TEMP=15.9,BA=5.64,STAT.D,ExtBa=12.00
26/09/2022,13:54:24,TEMP=16.0,BA=5.64,STAT.D,ExtBa=11.90
26/09/2022,13:56:24,TEMP=16.2,BA=5.64,STAT.D,ExtBa=11.90
26/09/2022,14:00:24,TEMP=15.6,BA=5.64,STAT.D,ExtBa=12.00
26/09/2022,14:10:12,TEMP=15.3,BA=5.60,STAT.F,ExtBa=12.00
26/09/2022,14:25:10,TEMP=15.0,BA=5.64,STAT.D,ExtBa=12.00
26/09/2022,14:30:24,TEMP=14.6,BA=5.64,STAT.D,ExtBa=12.00
26/09/2022,14:33:24,TEMP=14.6,BA=5.64,STAT.D,ExtBa=12.00
26/09/2022,14:40:10,TEMP=13.9,BA=5.60,STAT.D,ExtBa=12.00
26/09/2022,14:42:24,TEMP=14.0,BA=5.60,STAT.D,ExtBa=12.00
26/09/2022,14:45:24,TEMP=13.7,BA=5.60,STAT.D,ExtBa=12.00
26/09/2022,14:48:24,TEMP=13.5,BA=5.60,STAT.D,ExtBa=12.00
26/09/2022,14:51:24,TEMP=13.4,BA=5.56,STAT.D,ExtBa=12.00
26/09/2022,14:54:24,TEMP=13.2,BA=5.56,STAT.D,ExtBa=12.00
26/09/2022,14:56:23,TEMP=13.4,BA=5.56,STAT.D,ExtBa=11.90
26/09/2022,15:00:24,TEMP=12.9,BA=5.64,STAT.D,ExtBa=12.00
26/09/2022,15:10:11,TEMP=12.7,BA=5.64,STAT.F,ExtBa=12.00
26/09/2022,15:34:15,TEMP=14.2,BA=5.64,STAT.A,ExtBa=11.90
26/09/2022,15:37:38,TEMP=13.9,BA=5.64,STAT.C,ExtBa=11.90
26/09/2022,15:48:16,TEMP=14.0,BA=5.60,STAT.A,ExtBa=11.90
26/09/2022,15:51:24,TEMP=13.8,BA=5.60,STAT.D,ExtBa=11.90
26/09/2022,15:54:23,TEMP=13.8,BA=5.60,STAT.D,ExtBa=11.90
26/09/2022,15:57:22,TEMP=13.8,BA=5.60,STAT.A,ExtBa=11.90
26/09/2022,16:00:23,TEMP=13.7,BA=5.64,STAT.D,ExtBa=11.90
26/09/2022,16:03:23,TEMP=13.7,BA=5.64,STAT.D,ExtBa=11.90
26/09/2022,16:05:23,TEMP=13.9,BA=5.64,STAT.A,ExtBa=11.90
26/09/2022,16:09:23,TEMP=13.4,BA=5.64,STAT.D,ExtBa=11.90
26/09/2022,16:12:11,TEMP=13.4,BA=5.64,STAT.A,ExtBa=11.90
26/09/2022,16:15:23,TEMP=13.3,BA=5.64,STAT.D,ExtBa=11.90
26/09/2022,16:18:20,TEMP=13.3,BA=5.64,STAT.B,ExtBa=11.90
26/09/2022,16:30:23,TEMP=12.9,BA=5.64,STAT.D,ExtBa=11.90
26/09/2022,16:32:23,TEMP=13.2,BA=5.64,STAT.A,ExtBa=11.90
26/09/2022,16:36:23,TEMP=12.7,BA=5.64,STAT.D,ExtBa=11.90
26/09/2022,16:39:23,TEMP=12.7,BA=5.64,STAT.D,ExtBa=11.90
26/09/2022,16:41:24,TEMP=12.9,BA=5.64,STAT.A,ExtBa=11.90
26/09/2022,16:45:23,TEMP=12.4,BA=5.64,STAT.D,ExtBa=11.90
26/09/2022,16:48:23,TEMP=12.4,BA=5.64,STAT.D,ExtBa=11.90
26/09/2022,16:50:26,TEMP=12.6,BA=5.60,STAT.A,ExtBa=11.90
26/09/2022,16:56:59,TEMP=12.0,BA=5.60,STAT.D,ExtBa=12.00
26/09/2022,16:58:59,TEMP=12.3,BA=5.60,STAT.A,ExtBa=11.90
26/09/2022,17:01:23,TEMP=12.3,BA=5.64,STAT.A,ExtBa=11.90
26/09/2022,17:05:40,TEMP=11.9,BA=5.64,STAT.A,ExtBa=11.90